Marfa, TX

3:12 AM CDT on April 30, 2017 (GMT -0500)
Marfa Municipal

Weather History for KMRF - December, 2013

Change the Weather History Date:

Wednesday, December 4, 2013

  Actual Average Record
Temperature  
Mean Temperature 56 °F -  
Max Temperature 73 °F 57 °F 73 °F (2013)
Min Temperature 39 °F 28 °F 10 °F (2006)
Degree Days  
Heating Degree Days 9    
Growing Degree Days 6 (Base 50)    
Moisture  
Dew Point 37 °F    
Average Humidity 50    
Maximum Humidity 81    
Minimum Humidity 25    
Precipitation  
Precipitation 0.00 in - - ()
Sea Level Pressure  
Sea Level Pressure 29.88 in    
Wind  
Wind Speed 10 mph (SW)    
Max Wind Speed 30 mph    
Max Gust Speed 36 mph    
Visibility 10 miles    
Events      
Averages and records for this station are not official NWS values.
T = Trace of Precipitation, MM = Missing Value Source: NWS Daily Summary

Daily Weather History Graph

Daily Weather History Graph

Search for Another Location

Airport or City:

Trip Planner

Search our weather history database for the weather conditions in past years. The results will help you decide how hot, cold, wet, or windy it might be!

Date:

Astronomy

Dec. 04, 2013 Rise Set
Actual Time 7:37 AM CST 5:55 PM CST
Civil Twilight 7:11 AM CST 6:21 PM CST
Nautical Twilight 6:41 AM CST 6:51 PM CST
Astronomical Twilight 6:12 AM CST 7:20 PM CST
Moon 9:10 AM CST (12/4) 8:04 PM CST (12/4)
Length of Visible Light 11h 09m
Length of Day
10h 17m
Waxing Crescent, 4% of the Moon is Illuminated
Dec 4
Waxing Crescent
Dec 9
First Quarter
Dec 17
Full
Dec 25
Last Quarter
Jan 1
New

Hourly Weather History & Observations

Time (CST) Temp. Windchill Dew Point Humidity Pressure Visibility Wind Dir Wind Speed Gust Speed Precip Events Conditions
12:15 AM 55.4 °F - 39.2 °F 54% 29.85 in 10.0 mi SW 11.5 mph - N/A   Clear
12:35 AM 53.6 °F - 39.2 °F 58% 29.86 in 10.0 mi WSW 10.4 mph - N/A   Clear
12:55 AM 51.8 °F - 37.4 °F 58% 29.86 in 10.0 mi West 10.4 mph - N/A   Clear
1:15 AM 53.6 °F - 37.4 °F 54% 29.86 in 10.0 mi WSW 3.5 mph - N/A   Clear
1:35 AM 53.6 °F - 37.4 °F 54% 29.85 in 10.0 mi WNW 4.6 mph - N/A   Clear
1:55 AM 48.2 °F - 37.4 °F 66% 29.86 in 10.0 mi West 9.2 mph - N/A   Clear
2:15 AM 48.2 °F - 37.4 °F 66% 29.86 in 10.0 mi West 8.1 mph - N/A   Clear
2:55 AM 44.6 °F 38.8 °F 37.4 °F 76% 29.86 in 10.0 mi West 11.5 mph - N/A   Clear
3:15 AM 48.2 °F - 37.4 °F 66% 29.87 in 10.0 mi West 9.2 mph - N/A   Clear
3:35 AM 46.4 °F 41.9 °F 37.4 °F 71% 29.87 in 10.0 mi West 9.2 mph - N/A   Clear
3:55 AM 44.6 °F 42.2 °F 37.4 °F 76% 29.87 in 10.0 mi West 4.6 mph - N/A   Clear
4:15 AM 48.2 °F - 39.2 °F 71% 29.87 in 10.0 mi WSW 5.8 mph - N/A   Clear
4:35 AM 39.2 °F 37.0 °F 33.8 °F 81% 29.87 in 10.0 mi NW 3.5 mph - N/A   Clear
4:55 AM 44.6 °F 42.2 °F 37.4 °F 76% 29.87 in 10.0 mi WSW 4.6 mph - N/A   Clear
5:15 AM 42.8 °F 41.1 °F 35.6 °F 76% 29.86 in 10.0 mi SW 3.5 mph - N/A   Clear
5:35 AM 39.2 °F - 33.8 °F 81% 29.86 in 10.0 mi Calm Calm - N/A   Clear
5:55 AM 44.6 °F 39.7 °F 37.4 °F 76% 29.86 in 10.0 mi SSW 9.2 mph - N/A   Clear
6:15 AM 50.0 °F - 39.2 °F 66% 29.87 in 10.0 mi SSW 9.2 mph - N/A   Clear
6:35 AM 48.2 °F - 39.2 °F 71% 29.87 in 10.0 mi SSW 5.8 mph - N/A   Clear
6:55 AM 46.4 °F 44.3 °F 37.4 °F 71% 29.88 in 10.0 mi SSE 4.6 mph - N/A   Clear
7:15 AM 42.8 °F 40.1 °F 37.4 °F 81% 29.88 in 10.0 mi South 4.6 mph - N/A   Clear
7:35 AM 42.8 °F 39.3 °F 35.6 °F 76% 29.88 in 10.0 mi South 5.8 mph - N/A   Clear
7:55 AM 42.8 °F 41.1 °F 37.4 °F 81% 29.88 in 10.0 mi SSE 3.5 mph - N/A   Clear
8:15 AM 41.0 °F 39.0 °F 35.6 °F 81% 29.90 in 10.0 mi South 3.5 mph - N/A   Clear
8:35 AM 42.8 °F 38.6 °F 37.4 °F 81% 29.89 in 10.0 mi South 6.9 mph - N/A   Clear
8:55 AM 46.4 °F 45.2 °F 39.2 °F 76% 29.90 in 10.0 mi SSE 3.5 mph - N/A   Clear
9:15 AM 51.8 °F - 39.2 °F 62% 29.90 in 10.0 mi SSE 4.6 mph - N/A   Clear
9:35 AM 53.6 °F - 39.2 °F 58% 29.91 in 10.0 mi South 9.2 mph - N/A   Clear
9:55 AM 55.4 °F - 39.2 °F 54% 29.91 in 10.0 mi South 5.8 mph - N/A   Clear
10:15 AM 60.8 °F - 41.0 °F 48% 29.91 in 10.0 mi South 10.4 mph - N/A   Clear
10:35 AM 62.6 °F - 42.8 °F 48% 29.91 in 10.0 mi SSE 9.2 mph - N/A   Clear
10:55 AM 66.2 °F - 39.2 °F 37% 29.91 in 10.0 mi SW 19.6 mph 26.5 mph N/A   Clear
11:15 AM 69.8 °F - 39.2 °F 33% 29.92 in 10.0 mi WSW 23.0 mph 27.6 mph N/A   Clear
11:35 AM 69.8 °F - 39.2 °F 33% 29.91 in 10.0 mi SW 20.7 mph 27.6 mph N/A   Clear
11:55 AM 69.8 °F - 39.2 °F 33% 29.90 in 10.0 mi SW 20.7 mph 28.8 mph N/A   Partly Cloudy
12:15 PM 69.8 °F - 37.4 °F 31% 29.89 in 10.0 mi SW 25.3 mph 29.9 mph N/A   Clear
12:35 PM 71.6 °F - 37.4 °F 29% 29.88 in 10.0 mi WSW 24.2 mph 28.8 mph N/A   Clear
12:55 PM 71.6 °F - 37.4 °F 29% 29.87 in 10.0 mi WSW 25.3 mph 31.1 mph N/A   Clear
1:15 PM 71.6 °F - 39.2 °F 31% 29.86 in 10.0 mi WSW 23.0 mph 32.2 mph N/A   Clear
1:35 PM 71.6 °F - 39.2 °F 31% 29.85 in 10.0 mi SW 25.3 mph 31.1 mph N/A   Partly Cloudy
1:55 PM 71.6 °F - 39.2 °F 31% 29.86 in 10.0 mi WSW 27.6 mph 35.7 mph N/A   Clear
2:15 PM 71.6 °F - 39.2 °F 31% 29.85 in 10.0 mi WSW 29.9 mph 34.5 mph N/A   Clear
2:35 PM 71.6 °F - 39.2 °F 31% 29.85 in 10.0 mi SW 26.5 mph 29.9 mph N/A   Partly Cloudy
2:55 PM 71.6 °F - 37.4 °F 29% 29.85 in 10.0 mi SW 20.7 mph 27.6 mph N/A   Clear
3:15 PM 73.4 °F - 37.4 °F 27% 29.85 in 10.0 mi SW 23.0 mph 27.6 mph N/A   Clear
3:35 PM 73.4 °F - 37.4 °F 27% 29.84 in 10.0 mi SW 23.0 mph 32.2 mph N/A   Clear
3:55 PM 73.4 °F - 35.6 °F 25% 29.85 in 10.0 mi SW 21.9 mph 27.6 mph N/A   Clear
4:15 PM 71.6 °F - 33.8 °F 25% 29.85 in 10.0 mi SW 24.2 mph - N/A   Clear
4:35 PM 71.6 °F - 33.8 °F 25% 29.85 in 10.0 mi WSW 19.6 mph 26.5 mph N/A   Clear
4:55 PM 71.6 °F - 33.8 °F 25% 29.85 in 10.0 mi WSW 21.9 mph - N/A   Partly Cloudy
5:15 PM 69.8 °F - 33.8 °F 27% 29.86 in 10.0 mi SW 11.5 mph - N/A   Clear
5:35 PM 68.0 °F - 33.8 °F 28% 29.86 in 10.0 mi SW 11.5 mph - N/A   Clear
5:55 PM 64.4 °F - 35.6 °F 34% 29.87 in 10.0 mi SW 8.1 mph - N/A   Clear
6:15 PM 62.6 °F - 35.6 °F 37% 29.88 in 10.0 mi SSW 8.1 mph - N/A   Clear
6:35 PM 62.6 °F - 37.4 °F 39% 29.88 in 10.0 mi SSW 8.1 mph - N/A   Clear
6:55 PM 62.6 °F - 37.4 °F 39% 29.89 in 10.0 mi South 8.1 mph - N/A   Partly Cloudy
7:15 PM 62.6 °F - 39.2 °F 42% 29.89 in 10.0 mi SSW 9.2 mph - N/A   Scattered Clouds
7:35 PM 62.6 °F - 39.2 °F 42% 29.90 in 10.0 mi SSW 8.1 mph - N/A   Mostly Cloudy
7:55 PM 62.6 °F - 39.2 °F 42% 29.90 in 10.0 mi SW 8.1 mph - N/A   Overcast
8:15 PM 60.8 °F - 39.2 °F 45% 29.90 in 10.0 mi WSW 5.8 mph - N/A   Mostly Cloudy
8:35 PM 57.2 °F - 37.4 °F 48% 29.90 in 10.0 mi Calm Calm - N/A   Mostly Cloudy
8:55 PM 57.2 °F - 39.2 °F 51% 29.92 in 10.0 mi West 6.9 mph - N/A   Overcast
9:15 PM 59.0 °F - 37.4 °F 45% 29.90 in 10.0 mi Calm Calm - N/A   Overcast
9:35 PM 57.2 °F - 37.4 °F 48% 29.93 in 10.0 mi WSW 3.5 mph - N/A   Scattered Clouds
9:55 PM 53.6 °F - 33.8 °F 47% 29.93 in 10.0 mi West 6.9 mph - N/A   Partly Cloudy
10:15 PM 53.6 °F - 33.8 °F 47% 29.93 in 10.0 mi West 11.5 mph - N/A   Clear
10:35 PM 57.2 °F - 33.8 °F 41% 29.94 in 10.0 mi West 10.4 mph - N/A   Clear
10:55 PM 53.6 °F - 33.8 °F 47% 29.94 in 10.0 mi West 8.1 mph - N/A   Clear
11:15 PM 53.6 °F - 33.8 °F 47% 29.96 in 10.0 mi West 8.1 mph - N/A   Partly Cloudy
11:35 PM 53.6 °F - 33.8 °F 47% 29.96 in 10.0 mi West 8.1 mph - N/A   Scattered Clouds
11:55 PM 53.6 °F - 33.8 °F 47% 29.97 in 10.0 mi West 5.8 mph - N/A   Scattered Clouds